www.pogodaiklimat.ru
ПОГОДА в Кемптене

Архив погоды в Кемптене (Германия)

Время
(UTC), дата
13 14.04
14 14.04
15 14.04
16 14.04
17 14.04
18 14.04
19 14.04
20 14.04
21 14.04
22 14.04
23 14.04
00 15.04
01 15.04
02 15.04
03 15.04
04 15.04
05 15.04
06 15.04
07 15.04
08 15.04
09 15.04
10 15.04
11 15.04
12 15.04
13 15.04
14 15.04
15 15.04
16 15.04
17 15.04
18 15.04
19 15.04
20 15.04
21 15.04
22 15.04
23 15.04
00 16.04
01 16.04
02 16.04
03 16.04
04 16.04
05 16.04
06 16.04
07 16.04
08 16.04
09 16.04
10 16.04
11 16.04
12 16.04
13 16.04
14 16.04
15 16.04
16 16.04
17 16.04
18 16.04
19 16.04
20 16.04
21 16.04
22 16.04
23 16.04
00 17.04
01 17.04
02 17.04
03 17.04
04 17.04
05 17.04
06 17.04
07 17.04
08 17.04
09 17.04
10 17.04
11 17.04
12 17.04
13 17.04
14 17.04
15 17.04
16 17.04
17 17.04
18 17.04
19 17.04
20 17.04
21 17.04
22 17.04
23 17.04
00 18.04
01 18.04
02 18.04
03 18.04
04 18.04
05 18.04
06 18.04
07 18.04
08 18.04
09 18.04
10 18.04
11 18.04
12 18.04
13 18.04
14 18.04
15 18.04
16 18.04
17 18.04
18 18.04
19 18.04
20 18.04
21 18.04
22 18.04
23 18.04
00 19.04
01 19.04
02 19.04
03 19.04
04 19.04
05 19.04
06 19.04
07 19.04
08 19.04
09 19.04
10 19.04
11 19.04
12 19.04
13 19.04
14 19.04
15 19.04
16 19.04
17 19.04
18 19.04
19 19.04
20 19.04
21 19.04
22 19.04
23 19.04
00 20.04
01 20.04
02 20.04
03 20.04
04 20.04
05 20.04
06 20.04
07 20.04
08 20.04
09 20.04
10 20.04
11 20.04
12 20.04
13 20.04
14 20.04
15 20.04
16 20.04
17 20.04
18 20.04
19 20.04
20 20.04
21 20.04
22 20.04
23 20.04
00 21.04
01 21.04
02 21.04
03 21.04
04 21.04
05 21.04
06 21.04
07 21.04
08 21.04
09 21.04
10 21.04
11 21.04
Ветер
(напр.,м/с)
Видим. Явления Облачность Т
(С)
Тd
(С)
f
(%)
Тe
(С)
Тes
(С)
Комфортность P
(гПа)
Po
(гПа)
Тmin
(С)
Tmax
(С)
R
(мм)
R24
(мм)
S
(см)
ЮЗ 5-10 {11} 45 км 9/0 +24.3 +2.7 24 +23 +27 комфорт 1018.7 940.6
З 5-13 {13} 50 км 9/0 +24.5 +1.9 23 +23 +26 комфорт 1017.8 939.8
З 5-9 {13} 60 км 8/0 +24.3 +3.3 25 +24 +25 комфорт 1017.1 939.1
З 4-10 {10} 55 км 3/0 +24.1 +3.2 26 +23 +25 комфорт 1016.9 938.9
З 3-7 {8} >70 км 6/0 +23.2 +4.1 29 +23 +24 комфорт 1016.5 938.3
З 2-4 {13} 55 км 10/0 +21.2 +5.2 35 +22 +22 комфорт 1016.5 937.8 +12.8 +25.1
ЮВ 1-2 {3} 50 км 10/0 +15.0 +8.4 65 +16 +16 1018.1 937.8
ЮВ 1-2 {2} 50 км 10/0 +13.5 +8.6 72 +14 +14 1018.4 937.6
ЮВ 1-2 {3} 55 км 10/0 +14.1 +8.0 67 +15 +15 1017.5 937.0
ЮВ 2-4 {4} 55 км 10/0 +12.4 +7.7 73 +12 +12 1017.4 936.4
ЮВ 2-3 {4} 60 км 10/0 +13.0 +7.1 67 +12 +12 1016.5 935.7
ЮВ 2-3 {4} 60 км 10/0 +12.5 +7.0 69 +12 +12 1016.0 935.1
ЮВ 2-4 {4} 55 км 10/0 +11.4 +6.8 73 +10 +10 1015.5 934.4
ЮВ 2-3 {4} 50 км 10/0 +11.3 +7.0 75 +10 +10 1014.5 933.4
В 2-3 {4} 55 км 10/0 +12.6 +7.0 69 +12 +12 1013.6 932.9
ЮВ 1-2 {3} 30 км слаб. дождь 10/10 1320 м +12.4 +7.6 73 +13 +13 1013.3 932.6
З 1-4 {6} 50 км в посл. час дождь 10/0 2000 м +13.6 +9.6 77 +14 +14 1013.2 932.9
Ю 1-3 {6} 26 км в посл. час дождь 9/9 1500 м +11.6 +10.3 92 +11 +12 1014.2 933.3 +10.9 +21.0 1 1.1
Ю 2-4 {4} 50 км в посл. час дождь 10/10 1500 м +12.9 +10.8 87 +12 +12 1012.8 932.4
З 2-4 {4} 45 км слаб. дождь 9/9 1350 м +13.5 +11.1 85 +13 +14 1012.4 932.2
З 3-8 {8} 1600 м сильн. дождь 10/10 800 м +13.3 +11.3 88 +12 +12 1012.8 932.5 5
З 4-9 {13} 12 км слаб. дождь 8/8 30 м +12.7 +10.9 89 +11 +13 1013.1 932.6
ЮЗ 4-7 {11} 10 км слаб. дождь 9/9 120 м +12.2 +10.6 90 +10 +11 1012.6 932.0
З 4-8 {13} 10 км слаб. дождь 10/10 700 м +12.8 +10.7 87 +11 +11 1011.4 931.1 9
ЮЗ 3-5 {7} 55 км в посл. час дождь 9/0 2000 м +14.3 +11.2 82 +13 +19 1009.3 929.5
ЮЗ 4-9 {9} 60 км в посл. час дождь 9/9 720 м +16.2 +11.4 73 +15 +16 1007.5 928.4
ЮЗ 3-7 {13} 40 км слаб. морось 9/9 1170 м +13.1 +9.9 81 +12 +12 1007.7 927.7 3
З 3-8 {9} 13 км слаб. дождь 8/8 800 м +14.4 +10.5 77 +13 +14 1006.4 926.9
З 3-8 {10} 45 км в посл. час дождь 1/0 +14.1 +9.9 76 +13 +14 1005.8 926.2
ЮЗ 3-6 {13} 45 км 8/0 +13.1 +9.2 77 +12 +12 1005.9 926.0 +11.5 +16.3 0.7
З 5-11 {11} 40 км 9/0 +13.2 +6.0 62 +11 +11 1006.6 926.6
З 6-13 {14} 40 км 10/0 +12.4 +3.7 55 +10 +10 1007.5 927.2
З 6-12 {14} 45 км 10/0 +11.8 +2.8 54 +9 +9 1008.1 927.6
З 9-18 {18} 28 км слаб. дождь 9/9 1500 м +11.0 +1.3 51 +8 +8 1008.6 927.8
З 7-15 {18} 45 км слаб. дождь 9/9 1500 м +9.7 +1.6 57 +6 +6 1009.3 928.1
СЗ 2-5 {18} 55 км слаб. дождь 10/10 570 м +5.1 +1.8 79 +3 +3 1011.7 929.0 0.1
СЗ 4-8 {8} 35 км слаб. дождь 10/10 600 м +3.9 +0.8 80 -1 -1 1011.6 928.6
С 1-3 {6} 25 км слаб. морось с дождем 10/10 480 м +3.0 +0.5 84 +1 +1 1011.9 928.6
С 1-3 {8} 8000 м слаб. морось с дождем 5/5 30 м +1.8 +0.6 92 -0 -0 1012.6 928.9 2
Ю 2-3 {6} 2800 м снег 9/9 150 м +0.7 0.0 95 -3 -3 1013.0 928.9
Ю 3-5 {5} 12 км слаб. снег 5/5 180 м +1.1 +0.3 94 -4 -3 1013.0 929.1
ЮЗ 4-7 {9} 25 км слаб. дождь ?/? +1.8 +0.2 89 -3 -3 1013.0 929.3 +0.5 +13.6 4 24.2
Ю 3-6 {9} 17 км слаб. морось с дождем 1/1 600 м +1.9 +0.7 92 -3 +1 1013.2 929.5
ЮЗ 5-9 {9} 55 км в посл. час дождь 9/9 500 м +3.4 +0.3 80 -2 -1 1012.8 929.5
ЮЗ 5-11 {14} 45 км в посл. час дождь 9/9 750 м +3.6 -0.1 77 -1 -1 1013.1 929.9 0.7
З 6-10 {13} >70 км в посл. час дождь 5/5 750 м +5.4 0.0 68 +1 +3 1012.4 929.7
ЮЗ 5-10 {11} 35 км 4/4 840 м +6.6 +0.6 65 +3 +7 1011.5 929.3
ЮЗ 5-12 {14} 60 км 9/9 1020 м +7.0 -0.2 60 +3 +4 1010.8 928.7 0.0
ЮЗ 4-10 {14} 60 км в посл. час дождь 5/5 1110 м +8.5 -0.4 54 +6 +10 1009.9 928.3
З 5-11 {11} >70 км 9/9 1260 м +7.7 -1.8 51 +4 +5 1009.1 927.3
З 4-10 {14} 45 км 9/9 1500 м +7.9 -1.5 51 +5 +6 1008.8 927.1 0.0
ЮЗ 4-9 {13} 60 км 9/9 1500 м +8.2 -1.5 50 +6 +6 1008.4 926.8
Ю 4-7 {13} 60 км 9/0 2000 м +7.3 -0.9 56 +4 +5 1008.8 926.9
ЮЗ 2-5 {14} 65 км 10/0 2000 м +6.6 -0.9 59 +5 +5 1008.9 926.8 +1.6 +9.3
Ю 3-5 {9} 65 км в посл. час дождь 9/9 500 м +3.7 +1.3 84 -0 -0 1010.7 927.7
Ю 4-6 {7} 19 км слаб. морось с дождем 9/9 450 м +3.5 +1.8 89 -1 -1 1011.1 928.0
ЮЗ 3-5 {9} >70 км слаб. морось 9/9 360 м +3.4 +1.9 90 -1 -1 1010.9 927.8 0.3
ЮЗ 3-7 {9} 65 км в посл. час дождь 10/10 400 м +3.4 +1.5 87 -1 -1 1010.9 927.8
ЮЗ 4-7 {8} >70 км в посл. час дождь 9/9 330 м +3.4 +1.5 87 -1 -1 1010.8 927.7
ЮЗ 3-6 {9} 50 км слаб. дождь 9/9 420 м +3.7 +1.6 86 -0 -0 1010.5 927.5 0.0
ЮЗ 3-7 {7} 17 км слаб. морось с дождем 8/8 30 м +3.0 +1.5 90 -1 -1 1010.0 926.9
Ю 2-3 {5} 13 км слаб. дождь 4/4 150 м +1.0 +0.3 95 -3 -3 1010.5 926.7
Ю 2-4 {7} 30 км слаб. дождь 8/0 +1.6 +0.6 93 -2 -2 1010.4 926.8 4
Ю 3-5 {5} 16 км слаб. дождь 3/3 500 м +1.4 +0.6 94 -3 -3 1010.5 926.9
Ю 2-3 {5} 26 км слаб. дождь 4/4 480 м +1.7 +1.0 95 -2 -2 1010.6 927.0
ЮЗ 2-4 {7} 17 км слаб. дождь 1/1 420 м +2.5 +1.3 92 -1 +1 1010.4 927.1 +1.0 +6.6 1 6.4
Ю 3-4 {5} 35 км слаб. дождь 9/9 400 м +2.8 +1.3 90 -1 -1 1010.4 927.2
ЮЗ 2-5 {6} 17 км слаб. дождь 9/9 400 м +3.1 +1.9 92 -0 +7 1010.3 927.2
Ю 2-4 {6} 12 км дождь со снегом 9/9 210 м +1.3 +0.3 93 -2 +5 1011.2 927.5 4
Ю 3-5 {5} 23 км слаб. дождь 3/3 150 м +2.3 +1.1 92 -2 +6 1011.0 927.6
ЮЗ 1-1 {5} 2400 м снег 9/9 90 м +0.9 -0.1 93 -1 +1 1011.6 927.7
З 1-1 {6} 500 м снег 9/9 30 м +0.8 -0.5 91 -1 +1 1011.7 927.8 8 1
Ю 1-1 {2} 23 км слаб. дождь 4/4 30 м +2.2 +0.1 86 +1 +9 опасность простуды 1011.8 928.3
Ю 1-2 {4} 28 км слаб. морось 9/9 120 м +2.5 +1.2 91 +1 +2 1011.6 928.2
ЮЗ 1-2 {4} 200 м сильн. снег 10/10 150 м +0.6 -0.2 94 -1 -1 1012.7 928.6 5
Ю 2-4 {4} 5000 м слаб. снег 6/6 60 м +0.4 -0.2 96 -3 -2 1013.2 929.0
Ю 3-5 {5} 30 км слаб. морось 8/8 630 м +1.5 +0.2 91 -3 -3 1012.8 929.0
Ю 2-3 {5} 50 км в посл. час дождь 9/9 870 м +1.7 +0.4 91 -2 -2 1013.0 929.2 +0.2 +3.2 4 1
ЮВ 1-1 {4} 14 км в посл. час дождь 10/10 480 м +1.3 +0.5 94 -1 -1 1013.3 929.4
ЮЗ 1-2 {5} 2800 м слаб. снег 9/9 150 м +0.4 -0.1 96 -2 -2 1014.0 929.8
З 1-1 {5} 500 м снег 9/9 30 м +0.2 -0.4 96 -2 -2 1014.0 929.7 2
Ю 1-2 {2} 3200 м слаб. снег 9/9 180 м +0.2 -0.2 97 -2 -2 1013.8 929.5
ЮЗ 1-2 {2} 1900 м снег 9/9 30 м +0.3 -0.3 96 -2 -2 1013.7 929.5
ЮВ 1-1 {5} 3600 м слаб. снег 9/9 450 м +0.3 -0.1 97 -2 -2 1013.7 929.5 1 4
ЮЗ 1-1 {2} 3600 м слаб. снег 9/9 90 м +0.3 -0.2 96 -2 -2 1013.6 929.4
Ю 1-2 {2} 5000 м слаб. снег 9/9 30 м +0.3 -0.1 97 -2 -2 1013.7 929.5
Ю 1-2 {3} 11 км снежные зёрна 9/9 210 м +0.5 0.0 96 -2 -2 1013.9 929.7 1
ЮЗ 1-2 {3} 21 км слаб. морось 9/9 330 м +0.6 -0.1 95 -2 -2 1014.1 929.9
Ю 1-2 {2} 21 км слаб. снег 10/10 90 м +0.5 -0.1 96 -2 -2 1014.5 930.3
Ю 1-2 {3} 13 км в посл. час снег 10/10 500 м +1.0 0.0 93 -1 -1 1014.9 930.8 +0.1 +1.8 0.0 24.9 3
Ю 1-2 {3} 30 км в посл. час снег 9/9 210 м +2.4 -0.1 84 +1 +1 1014.9 931.2
Ю 2-3 {3} 40 км слаб. морось 10/10 210 м +2.7 -0.4 80 -0 -0 1015.3 931.6
С 1-3 {4} 55 км в посл. час дождь 8/8 450 м +3.4 -0.9 73 +2 +5 1015.7 932.2 0.0
СВ 1-2 {3} 50 км в посл. час дождь 9/9 400 м +4.5 +0.1 73 +3 +5 1015.8 932.6
ЮЗ 2-4 {5} 65 км в посл. час дождь 5/5 800 м +3.8 -1.2 70 +1 +9 опасность простуды 1016.6 933.1
СВ 2-4 {8} 45 км в посл. час снег 8/8 180 м +2.6 +0.2 84 -1 +2 1017.6 933.7 0.6
С 1-2 {4} 1400 м снег 10/10 90 м +0.9 0.0 94 -1 -1 1018.9 934.4
Ю 1-2 {3} 50 км в посл. час снег 5/5 210 м +3.9 +0.7 80 +3 +8 1017.7 934.2
СВ 1-2 {4} 40 км слаб. дождь 9/9 700 м +4.7 -0.1 71 +4 +4 1017.8 934.5 2
ЮЗ 2-4 {5} 55 км в посл. час дождь 9/9 1350 м +4.8 +0.4 73 +2 +3 1018.1 934.8
В 3-6 {6} 28 км слаб. дождь 10/10 800 м +1.9 +0.2 88 -2 -2 1019.9 935.6
ЮЗ 1-1 {6} 22 км слаб. дождь 9/9 330 м +2.1 +0.9 92 0 0 1020.6 936.3 +0.8 +5.9 0.6
СЗ 2-3 {4} 600 м снег 9/9 30 м +0.8 -0.2 93 -3 -3 1022.1 937.3
В 1-2 {2} 8000 м в посл. час снег 9/9 180 м +0.5 -0.1 96 -2 -2 1022.7 937.8
ЮВ 1-2 {4} 16 км 6/6 90 м +0.7 +0.1 96 -1 -1 1022.7 937.8 3
ЮВ 1-2 {3} 3300 м дымка 9/9 700 м +1.0 +0.3 95 -1 -1 1022.8 938.0
Ю 2-4 {5} 17 км 6/6 90 м +0.8 +0.2 96 -3 -3 1022.8 938.0
Ю 2-3 {5} 17 км 9/9 300 м +1.3 +0.6 95 -2 -2 1022.7 938.0
Ю 1-3 {5} 24 км в посл. час дождь 9/9 240 м +1.8 +0.8 93 -0 -0 1022.2 937.7
ЮЗ 2-3 {7} 12 км 10/10 500 м +1.7 +0.9 94 -2 -2 1022.0 937.5
Ю 2-4 {7} 17 км 10/10 360 м +1.9 +0.7 92 -2 -2 1021.2 936.8 0.0
ЮЗ 2-4 {4} 17 км слаб. морось 9/9 480 м +2.0 +0.5 90 -1 -1 1020.6 936.3
ЮЗ 3-5 {6} 29 км в посл. час морось 10/10 420 м +2.2 +0.4 88 -2 -2 1020.4 936.2
ЮЗ 3-4 {7} 30 км в посл. час морось 10/10 450 м +2.5 +0.3 85 -2 -2 1020.2 936.1 +0.4 +2.6 0.0 5.8
ЮЗ 4-8 {8} 20 км слаб. морось 1/1 600 м +2.8 +0.1 82 -2 +1 1020.0 936.0
ЮЗ 3-7 {9} 12 км слаб. морось с дождем 9/9 540 м +2.7 +1.0 89 -1 -1 1019.5 935.5
ЮЗ 4-9 {9} 6000 м слаб. дождь 3/3 480 м +2.8 +1.3 90 -2 +3 1019.2 935.3 0.7
ЮЗ 5-12 {12} 29 км слаб. морось 5/5 400 м +3.4 +0.5 81 -2 +2 1018.3 934.6
ЮЗ 6-11 {12} 30 км слаб. морось 9/9 600 м +4.6 +0.7 76 -1 0 1016.5 933.3
ЮЗ 7-15 {15} 21 км слаб. дождь 4/4 720 м +3.8 -0.7 72 -2 +1 1015.8 932.4 0.7
ЮЗ 5-10 {13} 17 км слаб. дождь 3/3 450 м +3.0 +1.3 89 -2 +2 1015.5 931.9
ЮЗ 4-9 {11} 15 км слаб. дождь 3/3 330 м +2.3 +0.8 90 -3 +2 1015.1 931.3
ЮЗ 4-8 {13} 8000 м слаб. дождь 5/5 300 м +2.1 +0.7 90 -3 -1 1014.6 930.8 3
ЮЗ 5-12 {12} 9000 м слаб. дождь 3/3 330 м +2.2 +0.8 90 -3 -2 1013.8 930.1
Ю 5-8 {10} 8000 м слаб. дождь 6/6 300 м +1.9 +0.8 92 -4 -4 1013.5 929.8
ЮЗ 4-8 {13} 8000 м слаб. морось с дождем 5/5 30 м +2.1 +1.0 92 -3 -3 1012.9 929.3 +1.8 +5.1 4
ЮЗ 5-10 {10} 6000 м слаб. морось с дождем 1/1 30 м +1.9 +0.8 92 -4 -4 1013.4 929.7
ЮЗ 4-8 {9} 19 км слаб. дождь 6/0 +1.9 +0.8 92 -3 -3 1013.9 930.1
ЮЗ 5-8 {10} >70 км в посл. час дождь 6/6 400 м +2.1 +0.7 90 -4 -4 1014.1 930.4 2
ЮЗ 4-11 {11} 60 км слаб. дождь 10/10 300 м +2.2 +0.9 91 -3 -3 1014.3 930.6
З 3-8 {10} 4300 м дождь 6/6 270 м +2.5 +1.3 92 -2 -2 1014.1 930.5
З 3-7 {11} 40 км слаб. морось 3/3 30 м +1.9 +0.6 91 -2 -2 1014.6 930.8 2
ЮЗ 1-3 {7} 50 км в посл. час дождь 10/10 480 м +1.8 +0.2 89 0 0 1014.9 931.0
ЮЗ 1-3 {4} 24 км слаб. дождь со снегом 9/9 420 м +1.2 +0.3 94 -1 -1 1015.1 931.0
З 1-4 {7} 55 км в посл. час снег 10/10 800 м +1.7 +0.2 90 -0 -0 1015.4 931.4 0.0
З 3-6 {6} 55 км в посл. час дождь 10/10 720 м +2.2 -0.2 84 -2 -2 1015.6 931.8
З 1-3 {5} 4800 м слаб. морось с дождем 10/10 400 м +2.0 +0.6 90 0 0 1016.3 932.4
З 3-7 {7} 14 км слаб. снег 5/5 180 м +1.6 +0.1 90 -3 -2 1017.2 933.1 +1.1 +2.6 0.3 12.7
ЮЗ 1-2 {4} 25 км слаб. морось 9/9 400 м +1.9 +1.0 94 0 +1 1017.8 933.7
З 3-5 {7} 55 км в посл. час снег 10/10 420 м +2.9 +0.8 86 -1 -1 1018.0 934.2
З 3-5 {7} 55 км слаб. морось 9/9 450 м +3.8 +0.5 79 0 +1 1018.3 934.7 0.4
З 2-4 {8} 50 км в посл. час снег 9/9 180 м +2.9 +0.8 86 -0 +1 1019.4 935.5
СЗ 2-5 {6} 55 км в посл. час дождь 10/10 500 м +3.9 +0.1 76 +1 +1 1019.6 935.9
СЗ 3-5 {8} 60 км в посл. час дождь 10/10 750 м +5.4 +0.1 69 +2 +2 1019.3 936.1 0.4
СЗ 3-7 {8} 60 км 10/10 1020 м +5.3 -2.7 56 +2 +2 1019.8 936.5
СЗ 3-6 {7} 60 км 10/10 1080 м +5.4 -2.5 57 +3 +3 1019.9 936.6
З 2-4 {8} 65 км 10/10 1020 м +5.4 -1.5 61 +3 +3 1019.9 936.6
З 2-4 {6} >70 км в посл. час дождь 10/10 1170 м +5.5 -1.8 59 +3 +3 1020.1 936.8
Ю 2-4 {4} 50 км 9/9 930 м +4.6 +0.6 75 +2 +2 1020.4 936.9
Ю 2-4 {8} 55 км 9/9 1050 м +3.6 +0.7 81 +1 +1 1021.0 937.1 +1.1 +6.9 0.0
Ю 2-5 {6} 45 км 5/5 1020 м +2.3 +0.2 86 -1 -1 1021.9 937.6
Ю 2-4 {5} 45 км 10/10 1080 м +2.1 -0.2 85 -1 -1 1022.3 937.9
З 1-4 {6} 11 км сильные осадки 5/5 180 м +2.0 +0.4 89 0 0 1022.6 938.1 0.3
Ю 2-3 {4} 400 м снег 10/10 60 м +0.2 -0.3 96 -4 -4 1022.9 937.9
Ю 2-3 {3} 10 км в посл. час снег 10/10 30 м +0.3 -0.1 97 -4 -4 1022.6 937.6
ЮВ 1-2 {6} 14 км в посл. час дождь 10/10 420 м +0.4 -0.1 96 -2 -2 1022.1 937.2 6 2
Ю 2-4 {4} 8000 м слаб. дождь со снегом 9/9 420 м +0.5 0.0 96 -3 -3 1021.4 936.6
З 1-2 {3} 8000 м слаб. морось с дождем 9/9 300 м +0.5 -0.1 96 -2 -2 1021.0 936.2
Ю 1-1 {4} 6000 м в посл. час снег 10/10 240 м +0.5 0.0 96 -2 -2 1020.5 935.8 0.0
Ю 2-3 {3} 20 км слаб. морось 10/10 420 м +0.8 0.0 94 -3 -3 1019.6 935.0
Ю 1-2 {3} 14 км слаб. морось 9/9 420 м +0.8 +0.1 95 -1 -1 1019.2 934.7
Ю 2-4 {4} 11 км сильн. морось 9/9 90 м +0.9 +0.1 94 -3 -3 1019.0 934.5 +0.2 +3.6 0.0 6.8 1
Ю 2-4 {4} 30 км в посл. час снег 9/9 90 м +1.7 +0.7 93 -2 -1 1018.2 934.0
Ю 1-2 {5} 17 км слаб. морось 9/9 90 м +1.2 +0.2 93 -1 0 1018.2 933.9
Ю 2-3 {5} 4100 м снег 8/8 150 м +0.9 -0.1 93 -3 -1 1018.3 933.9 2
Ю 2-4 {5} 9000 м слаб. морось с дождем 8/8 120 м +1.6 +0.6 93 -2 +1 1017.9 933.7
СЗ 2-4 {5} 1800 м снег 9/9 90 м +0.6 -0.4 93 -3 -2 1018.7 934.1
Местоположение метеостанции Кемптен (Германия): широта 47.72 долгота 10.33 высота над уровнем моря 705 м.
В архиве по умолчанию представлена погода в Кемптене за последнюю неделю. Архивные данные за месяц целиком и за предыдущие месяцы, начиная с января 2011 года, Вы можете получить, выбрав интересующий диапазон дат из раскрывающегося списка и нажав кнопку "Найти!".
*Определитесь, кто Вы:
Внимание! Время в таблицах - всемирное. Для получения местного времени необходимо прибавить поправку, которая равна 1 ч.
Некоторые строки с данными для отдельных станций могут быть выделены курсивом. Это означает, что фактические данные отсутствуют по различным причинам, а приведенные значения являются расчетными модельными данными для данного пункта наблюдений.
Смотрите также архив погоды в соседних городах и на ближайших метеорологических станциях:
Партнеры нашего сайта:      
Пояснения к столбцам:
  • Ветер - указаны скорость ветра в м/с - средняя за 10 мин, порывы в срок и между сроками (в фигурных скобках) и направление, откуда дует ветер: С - северный,
  • СВ - северо-восточный, В - восточный, ЮВ - юго-восточный, Ю - южный, ЮЗ - юго-западный, З - западный, СЗ - северо-западный.
  • Видимость - горизонтальная дальность видимости в метрах или километрах. При видимости от 1 до 10 км при отсутствии осадков обычно наблюдается дымка, при ухудшении видимости до 1 км и менее - туман. В сухую погоду видимость может ухудшаться дымом, пылью или мглою.
  • Явления - указаны атмосферные явления, наблюдавшиеся в срок или в последний час перед сроком; фигурными скобками обозначены явления, наблюдавшиеся между сроками (за 1-3 часа до срока); квадратными скобками обозначены град или гололедные отложения с указанием их диаметра в мм.
  • Облачность - указаны через наклонную черту общая и нижняя облачность в баллах и высота нижней границы облаков в метрах; квадратными скобками обозначены формы облаков: Ci - перистые, Cs - перисто-слоистые, Cc - перисто-кучевые, Ac - высококучевые, As - высокослоистые, Sc - слоисто-кучевые, Ns - слоисто-дождевые, Cu - кучевые, Cb - кучево-дождевые. Подробнее классификацию облаков см. в Атласе облаков (PDF).
  • T - Температура воздуха - температура, измеренная на высоте 2 м над землей.
  • Td - Температура точки росы - температура, при понижении до которой содержащийся в воздухе водяной пар достигнет насыщения.
  • f - Относительная влажность воздуха - влажноcть воздуха, измеренная на высоте 2 м над землей.
  • Te - Эффективная температура - температура, которую ощущает одетый по сезону человек в тени. Характеристика душности погоды. При расчете учитывается влияние влажности воздуха и скорости ветра на теплоощущения человека.
  • Tes - Эффективная температура на солнце - температура, которую ощущает человек, с поправкой на солнечный нагрев. Характеристика знойности погоды. Зависит от высоты солнца над горизонтом, облачности и скорости ветра. Ночью, в пасмурную погоду, а также при ветре 12 м/с и более поправка равна нулю.
  • P - Атмосферное давление - приведенное к уровню моря атмосферное давление.
  • Po - Атмосферное давление - измеренное на уровне метеостанции атмосферное давление.
  • Tmin - Минимальная температура - минимум температуры воздуха на высоте 2 м над землей.
  • Tmax - Максимальная температура - максимум температуры воздуха на высоте 2 м над землей.
  • R - Количество осадков - Количество выпавших осадков за период времени, мм. При наведении курсора мыши на число - период времени, за который выпало указанное количество осадков.
  • R24 - Количество осадков - Количество выпавших осадков за 24 часа, мм.
  • S - Снежный покров - Высота снежного покрова, см. При наведении курсора мыши на число - состояние снежного покрова и степень покрытия местности в баллах.